User: anonymous   Login
Location: Unspecified
(0.0000°N, 0.0000°E)
Time: 04:47:59
(UTC+00:00)
Language:

GGSE 2 - Orbit

View from above orbital plane
View from above orbital plane
View from above satellite
View from above satellite

Ground track
Ground track

The orbit data is extracted from the following two-line orbital elements,

1 01244U 65016B   18020.51944381 -.00000002  00000-0  36769-4 0  9993
2 01244  70.0774 241.3276 0020557 171.9672 188.1768 13.95601378690170
Epoch (UTC): 20 January 2018 12:27:59
Eccentricity: 0.0020557
inclination: 70.0774°
perigee height: 894 km
apogee height: 924 km
right ascension of ascending node: 241.3276°
argument of perigee: 171.9672°
revolutions per day: 13.95601378
mean anomaly at epoch: 188.1768°
orbit number at epoch: 69017

The dashed part of the orbit path shows where the satellite is in the earth's shadow,  

DLR